TimeEDT,TemperatureF,Dew PointF,Humidity,Sea Level PressureIn,VisibilityMPH,Wind Direction,Wind SpeedMPH,Gust SpeedMPH,PrecipitationIn,Events,Conditions,WindDirDegrees,DateUTC
12:15 AM,57.2,52.7,85,30.22,10.0,Calm,Calm,-,N/A,,Clear,0,2013-05-02 04:15:00
12:35 AM,56.3,53.2,89,30.22,10.0,Calm,Calm,-,N/A,,Clear,0,2013-05-02 04:35:00
12:55 AM,55.4,52.9,91,30.23,10.0,Calm,Calm,-,N/A,,Clear,0,2013-05-02 04:55:00
1:15 AM,55.4,52.7,91,30.24,10.0,Calm,Calm,-,N/A,,Clear,0,2013-05-02 05:15:00
1:35 AM,55.4,52.0,88,30.24,10.0,Calm,Calm,-,N/A,,Clear,0,2013-05-02 05:35:00
1:55 AM,57.9,49.8,74,30.24,10.0,SE,5.8,-,N/A,,Clear,140,2013-05-02 05:55:00
2:15 AM,62.2,47.3,58,30.24,10.0,SSE,4.6,-,N/A,,Clear,150,2013-05-02 06:15:00
2:35 AM,62.2,46.6,57,30.24,10.0,Calm,Calm,-,N/A,,Clear,0,2013-05-02 06:35:00
2:55 AM,61.9,46.0,56,30.24,10.0,Calm,Calm,-,N/A,,Clear,0,2013-05-02 06:55:00
3:15 AM,61.7,45.7,56,30.24,10.0,Calm,Calm,-,N/A,,Clear,0,2013-05-02 07:15:00
3:35 AM,58.6,46.0,63,30.24,10.0,Calm,Calm,-,N/A,,Clear,0,2013-05-02 07:35:00
3:55 AM,54.9,46.6,74,30.24,10.0,Calm,Calm,-,N/A,,Clear,0,2013-05-02 07:55:00
4:15 AM,52.7,46.9,81,30.24,10.0,Calm,Calm,-,N/A,,Clear,0,2013-05-02 08:15:00
4:35 AM,55.6,46.0,70,30.24,10.0,SE,3.5,-,N/A,,Clear,130,2013-05-02 08:35:00
4:55 AM,57.2,45.5,65,30.24,10.0,Calm,Calm,-,N/A,,Clear,0,2013-05-02 08:55:00
5:15 AM,52.0,45.7,79,30.24,10.0,ENE,3.5,-,N/A,,Clear,70,2013-05-02 09:15:00
5:35 AM,51.1,45.7,82,30.24,10.0,Calm,Calm,-,N/A,,Clear,0,2013-05-02 09:35:00
5:55 AM,51.8,45.5,79,30.25,10.0,Calm,Calm,-,N/A,,Clear,0,2013-05-02 09:55:00
6:15 AM,50.5,45.9,84,30.25,10.0,Calm,Calm,-,N/A,,Clear,0,2013-05-02 10:15:00
6:35 AM,50.9,45.9,83,30.26,10.0,Calm,Calm,-,N/A,,Clear,0,2013-05-02 10:35:00
6:55 AM,51.1,45.7,82,30.26,10.0,Calm,Calm,-,N/A,,Clear,0,2013-05-02 10:55:00
7:15 AM,52.7,46.2,79,30.27,10.0,Calm,Calm,-,N/A,,Clear,0,2013-05-02 11:15:00
7:35 AM,58.1,44.8,61,30.27,10.0,ESE,5.8,-,N/A,,Clear,110,2013-05-02 11:35:00
7:55 AM,59.9,45.3,59,30.27,10.0,ESE,6.9,-,N/A,,Clear,110,2013-05-02 11:55:00
8:15 AM,61.0,46.0,58,30.29,10.0,ESE,5.8,-,N/A,,Clear,110,2013-05-02 12:15:00
8:35 AM,61.3,46.8,59,30.29,10.0,SE,8.1,-,N/A,,Clear,130,2013-05-02 12:35:00
8:55 AM,62.6,47.8,58,30.29,10.0,SSE,10.4,16.1,N/A,,Clear,160,2013-05-02 12:55:00
9:15 AM,63.7,48.4,57,30.29,10.0,SSE,8.1,11.5,N/A,,Clear,150,2013-05-02 13:15:00
9:35 AM,63.9,48.2,57,30.29,10.0,SSE,9.2,-,N/A,,Clear,160,2013-05-02 13:35:00
9:55 AM,64.8,48.6,56,30.29,10.0,SSE,8.1,-,N/A,,Clear,150,2013-05-02 13:55:00
10:15 AM,65.5,48.9,55,30.28,10.0,SSE,6.9,-,N/A,,Clear,150,2013-05-02 14:15:00
10:35 AM,66.0,49.5,55,30.28,10.0,SSE,10.4,-,N/A,,Clear,160,2013-05-02 14:35:00
10:55 AM,67.3,50.0,54,30.27,10.0,SE,8.1,-,N/A,,Clear,140,2013-05-02 14:55:00
11:15 AM,67.5,49.5,52,30.27,10.0,SE,8.1,-,N/A,,Clear,140,2013-05-02 15:15:00
11:35 AM,68.5,50.2,52,30.27,10.0,SE,8.1,-,N/A,,Clear,140,2013-05-02 15:35:00
11:55 AM,68.9,50.0,51,30.27,10.0,SE,6.9,-,N/A,,Clear,130,2013-05-02 15:55:00
12:15 PM,68.9,50.0,51,30.27,10.0,SE,8.1,-,N/A,,Scattered Clouds,130,2013-05-02 16:15:00
12:35 PM,69.3,50.4,51,30.26,10.0,SSE,6.9,-,N/A,,Scattered Clouds,160,2013-05-02 16:35:00
12:55 PM,69.1,50.4,51,30.25,10.0,SE,5.8,-,N/A,,Clear,140,2013-05-02 16:55:00
1:15 PM,70.2,51.1,51,30.24,10.0,SE,5.8,-,N/A,,Clear,130,2013-05-02 17:15:00
1:35 PM,72.0,52.0,49,30.24,10.0,ENE,5.8,-,N/A,,Clear,70,2013-05-02 17:35:00
1:55 PM,72.5,51.8,48,30.22,10.0,SSE,5.8,-,N/A,,Scattered Clouds,160,2013-05-02 17:55:00
2:15 PM,73.6,51.4,46,30.22,10.0,SSE,9.2,-,N/A,,Scattered Clouds,150,2013-05-02 18:15:00
2:35 PM,74.1,51.3,45,30.22,10.0,SSE,5.8,-,N/A,,Scattered Clouds,160,2013-05-02 18:35:00
2:55 PM,74.5,51.3,44,30.21,10.0,SE,3.5,-,N/A,,Scattered Clouds,140,2013-05-02 18:55:00
3:15 PM,74.1,51.6,45,30.21,10.0,SSW,9.2,-,N/A,,Scattered Clouds,200,2013-05-02 19:15:00
3:35 PM,75.2,52.5,45,30.20,10.0,South,6.9,-,N/A,,Scattered Clouds,180,2013-05-02 19:35:00
3:55 PM,74.8,50.4,42,30.19,10.0,ESE,4.6,-,N/A,,Scattered Clouds,120,2013-05-02 19:55:00
4:15 PM,75.7,50.5,41,30.19,10.0,ESE,9.2,-,N/A,,Scattered Clouds,120,2013-05-02 20:15:00
4:35 PM,74.1,50.9,44,30.18,10.0,South,4.6,-,N/A,,Scattered Clouds,180,2013-05-02 20:35:00
4:55 PM,74.3,50.7,43,30.18,10.0,South,5.8,-,N/A,,Clear,190,2013-05-02 20:55:00
5:15 PM,74.5,50.4,43,30.18,10.0,South,6.9,-,N/A,,Clear,170,2013-05-02 21:15:00
5:35 PM,75.0,50.5,42,30.17,10.0,Calm,Calm,-,N/A,,Clear,0,2013-05-02 21:35:00
5:55 PM,74.8,50.4,42,30.17,10.0,SSE,6.9,-,N/A,,Scattered Clouds,150,2013-05-02 21:55:00
6:15 PM,73.8,50.9,45,30.16,10.0,South,4.6,-,N/A,,Scattered Clouds,170,2013-05-02 22:15:00
6:35 PM,74.5,50.5,43,30.16,10.0,South,4.6,-,N/A,,Clear,180,2013-05-02 22:35:00
6:55 PM,74.1,50.0,43,30.16,10.0,South,5.8,-,N/A,,Clear,180,2013-05-02 22:55:00
7:15 PM,73.4,50.5,45,30.15,10.0,South,3.5,-,N/A,,Clear,170,2013-05-02 23:15:00
7:35 PM,73.6,50.0,43,30.15,10.0,Calm,Calm,-,N/A,,Scattered Clouds,0,2013-05-02 23:35:00
7:55 PM,71.8,52.3,50,30.15,10.0,Calm,Calm,-,N/A,,Scattered Clouds,0,2013-05-02 23:55:00
8:15 PM,69.1,52.7,56,30.15,10.0,Calm,Calm,-,N/A,,Scattered Clouds,0,2013-05-03 00:15:00
8:35 PM,65.3,54.7,68,30.15,10.0,Calm,Calm,-,N/A,,Clear,0,2013-05-03 00:35:00
8:55 PM,64.8,54.1,68,30.14,10.0,Calm,Calm,-,N/A,,Clear,0,2013-05-03 00:55:00
9:15 PM,62.2,53.4,73,30.15,10.0,Calm,Calm,-,N/A,,Clear,0,2013-05-03 01:15:00
9:35 PM,62.4,53.8,73,30.15,10.0,Calm,Calm,-,N/A,,Clear,0,2013-05-03 01:35:00
9:55 PM,60.1,52.9,77,30.15,10.0,Calm,Calm,-,N/A,,Clear,0,2013-05-03 01:55:00
10:15 PM,60.3,53.4,78,30.15,10.0,Calm,Calm,-,N/A,,Scattered Clouds,0,2013-05-03 02:15:00
10:35 PM,58.8,53.1,81,30.16,10.0,Calm,Calm,-,N/A,,Clear,0,2013-05-03 02:35:00
10:55 PM,59.0,54.0,83,30.15,10.0,Calm,Calm,-,N/A,,Clear,0,2013-05-03 02:55:00
11:15 PM,57.2,52.5,84,30.15,10.0,Calm,Calm,-,N/A,,Clear,0,2013-05-03 03:15:00
11:35 PM,57.6,53.6,87,30.15,10.0,Calm,Calm,-,N/A,,Clear,0,2013-05-03 03:35:00
11:55 PM,58.6,53.1,82,30.15,10.0,South,4.6,-,N/A,,Clear,170,2013-05-03 03:55:00